Flag for Brazil Weather for the Past 2 Weeks in Juàzeiro do Norte, Ceará, Brazil

Now
88 °F

Scattered clouds.


Feels Like: 98 °F
Forecast: 70 / 94 °F
Wind: 20 mph from Southeast

Location: Fortaleza Aeropor-To

Current Time: Feb 9, 2016 at 1:53:28 PM

Latest Report: Feb 9, 2016 at 1:00 PM


Visibility: N/A

Pressure: 29.95 "Hg

Humidity: 66%

Dew point: 75 °F

Location of Juàzeiro do NorteLocation

Historic Weather in Juàzeiro do Norte — Graph

°F

Juàzeiro do Norte Temperature Yesterday

Maximum temperature yesterday: 86 °F (at 2:00 PM)
Minimum temperature yesterday: 75 °F (at 12:00 PM)
Average temperature yesterday: 81 °F

High & Low Weather Summary for the Past Weeks

 TemperatureHumidityPressure
High88 °F (Jan 27, 2:00 PM)100% (Feb 2, 2:00 PM)30.01 "Hg (Feb 2, 2:00 PM)
Low43 °F (Feb 2, 2:00 PM)54% (Jan 30, 8:00 AM)29.83 "Hg (Jan 29, 3:00 PM)
Average81 °F79%29.90 "Hg
* Reported Jan 25 12:00 Noon — Feb 9 12:00 Noon, Juàzeiro do Norte, Weather by CustomWeather, © 2016

Note: Actual official high and low records may vary slightly from our data, if they occured in-between our weather recording intervals... More about our weather records

Advertising

Juàzeiro do Norte Weather History for the Previous 24 Hours

 ConditionsComfort  
Time TempWeatherWind HumidityBarometerVisibility
12:00 PM
Tue, Feb 9
88 °FPartly sunny.20 mph66%29.95 "HgN/A
11:00 AM86 °FPartly sunny.12 mph70%29.98 "HgN/A
10:00 AM84 °FPartly sunny.13 mph74%29.98 "HgN/A
9:00 AM82 °FPartly sunny.13 mph79%29.98 "HgN/A
8:00 AM79 °FLight rain. Partly sunny.10 mph84%29.98 "HgN/A
7:00 AM79 °FScattered clouds.8 mph84%29.95 "HgN/A
6:00 AM75 °FScattered clouds.6 mph94%29.92 "HgN/A
5:00 AM77 °FPassing clouds.6 mph89%29.92 "HgN/A
4:00 AM77 °FPassing clouds.16 mph89%29.92 "HgN/A
3:00 AM77 °FPassing clouds.6 mph89%29.92 "HgN/A
2:00 AM77 °FPassing clouds.8 mph89%29.92 "HgN/A
1:00 AM79 °FPassing clouds.5 mph84%29.95 "HgN/A
12:00 AM79 °FPassing clouds.2 mph84%29.95 "HgN/A
11:00 PM
Mon, Feb 8
79 °FPassing clouds.5 mph84%29.98 "HgN/A
10:00 PM79 °FPassing clouds.5 mph89%29.98 "HgN/A
9:00 PM81 °FPassing clouds.6 mph84%30.01 "HgN/A
8:00 PM81 °FPassing clouds.8 mph84%29.98 "HgN/A
7:00 PM81 °FPassing clouds.10 mph84%29.95 "HgN/A
6:00 PM81 °FPassing clouds.10 mph84%29.95 "HgN/A
5:00 PM82 °FScattered clouds.13 mph79%29.92 "HgN/A
3:00 PM86 °FScattered clouds.13 mph62%29.92 "HgN/A
2:00 PM86 °FScattered clouds.8 mph62%29.95 "HgN/A
1:00 PM81 °FBroken clouds.13 mph74%29.98 "HgN/A
Weather by CustomWeather, © 2016

See weather overviewHow to use our weather pages